Flight Track Log - Related Links

Times and Time Zones

All times are in EDT time to prevent confusion due to time zone crossing. See the ASQ5875 flight status page for this flight to view local times or setup timezone preferences in your user account.

Time Position Orientation Groundspeed Altitude Reporting Facility
EDT Latitude Longitude Course Direction KTS MPH feet Rate Location/Type
Sun 07:33:24 PM 43.6667 -79.5833 360° North 100 115 1,000  Level Toronto Center
Sun 07:34:24 PM 43.7167 -79.5833 360° North 190 219 3,000 1,800 Climbing Toronto Center
Sun 07:35:24 PM 43.7667 -79.6500 316° Northwest 230 265 4,600 1,700 Climbing Toronto Center
Sun 07:36:24 PM 43.7667 -79.7500 270° West 250 288 6,400 1,900 Climbing Toronto Center
Sun 07:37:24 PM 43.7500 -79.8333 255° West 270 311 8,400 2,083 Climbing Toronto Center
Sun 07:38:25 PM 43.7500 -79.9500 270° West 290 334 10,600 1,650 Climbing Toronto Center
Sun 07:39:24 PM 43.7500 -80.0667 270° West 310 357 11,700 1,109 Climbing Toronto Center
Sun 07:40:24 PM 43.7500 -80.2167 270° West 340 391 12,800 1,200 Climbing Toronto Center
Sun 07:41:24 PM 43.7500 -80.3500 270° West 360 414 14,100 1,300 Climbing Toronto Center
Sun 07:42:24 PM 43.7500 -80.5167 270° West 370 426 15,400 1,350 Climbing Toronto Center
Sun 07:43:24 PM 43.7167 -80.6500 251° West 370 426 16,800 1,200 Climbing Toronto Center
Sun 07:44:24 PM 43.6833 -80.7833 251° West 380 437 17,800 1,150 Climbing Toronto Center
Sun 07:45:24 PM 43.6500 -80.9167 251° West 380 437 19,100 1,350 Climbing Toronto Center
Sun 07:46:24 PM 43.6167 -81.0667 253° West 380 437 20,500 1,300 Climbing Toronto Center
Sun 07:47:24 PM 43.5833 -81.2000 251° West 390 449 21,700 1,000 Climbing Toronto Center
Sun 07:48:24 PM 43.5500 -81.3667 255° West 400 460 22,500 650 Climbing Toronto Center
Sun 07:49:24 PM 43.5167 -81.5000 251° West 410 472 23,000 536 Climbing Toronto Center
Sun 07:51:12 PM 43.4731 -81.7903 258° West 421 484 24,000 536 Climbing Cleveland Center
Sun 07:52:12 PM 43.4358 -81.9497 252° West 426 490 24,500 700 Climbing Cleveland Center
Sun 07:53:12 PM 43.3983 -82.1061 252° West 431 496 25,400 850 Climbing Cleveland Center
Sun 07:54:12 PM 43.3628 -82.2592 252° West 431 496 26,200 800 Climbing Cleveland Center
Sun 07:55:12 PM 43.3272 -82.4125 252° West 431 496 27,000 700 Climbing Cleveland Center
Sun 07:56:12 PM 43.2914 -82.5625 252° West 426 490 27,600 600 Climbing Cleveland Center
Sun 07:57:12 PM 43.2533 -82.7153 251° West 426 490 28,200 550 Climbing Cleveland Center
Sun 07:58:12 PM 43.2150 -82.8650 251° West 421 484 28,700 500 Climbing Cleveland Center
Sun 07:59:12 PM 43.1725 -83.0114 248° West 421 484 29,200 500 Climbing Cleveland Center
Sun 08:00:12 PM 43.1336 -83.1608 250° West 421 484 29,700 400 Climbing Cleveland Center
Sun 08:01:12 PM 43.0906 -83.3125 249° West 426 490 30,000 150 Climbing Cleveland Center
Sun 08:02:12 PM 43.0472 -83.4669 249° West 431 496 30,000  Level Cleveland Center
Sun 08:03:12 PM 43.0014 -83.6267 249° West 436 502 30,000  Level Cleveland Center
Sun 08:04:12 PM 42.9597 -83.7864 250° West 448 516 30,000  Level Cleveland Center
Sun 08:05:12 PM 42.9444 -83.9556 263° West 448 516 30,000  Level Cleveland Center
Sun 08:06:12 PM 42.9269 -84.1250 262° West 453 521 30,000  Level Cleveland Center
Sun 08:08:10 PM 42.9000 -84.4244 263° West 445 512 30,000  Level Chicago Center
Sun 08:09:12 PM 42.8836 -84.5914 262° West 444 511 30,000  Level Chicago Center
Sun 08:10:14 PM 42.8622 -84.7917 262° West 446 513 30,000  Level Chicago Center
Sun 08:11:15 PM 42.8447 -84.9572 262° West 443 510 30,000  Level Chicago Center
Sun 08:12:17 PM 42.8275 -85.1256 262° West 447 514 30,000 -96 Level Chicago Center
Sun 08:13:20 PM 42.8083 -85.2936 261° West 449 517 29,800 -336 Descending Chicago Center
Sun 08:14:22 PM 42.7894 -85.4644 261° West 453 521 29,300 -581 Descending Chicago Center
Sun 08:15:24 PM 42.7611 -85.6367 257° West 460 529 28,600 -1,500 Descending Chicago Center
Sun 08:16:26 PM 42.7306 -85.8069 256° West 459 528 26,200 -2,952 Descending Chicago Center
Sun 08:17:28 PM 42.6933 -86.0122 256° West 462 532 22,500 -3,000 Descending Chicago Center
Sun 08:18:30 PM 42.6633 -86.1753 256° West 451 519 20,000 -1,210 Descending Chicago Center
Sun 08:19:32 PM 42.6331 -86.3372 256° West 442 509 20,000  Level Chicago Center
Sun 08:20:34 PM 42.6014 -86.5028 255° West 450 518 20,000 -145 Level Chicago Center
Sun 08:21:36 PM 42.5708 -86.6667 256° West 450 518 19,700 -1,742 Descending Chicago Center
Sun 08:22:38 PM 42.5372 -86.8192 253° West 430 495 16,400 -3,000 Descending Chicago Center
Sun 08:23:40 PM 42.4967 -86.9633 249° West 416 479 13,500 -2,468 Descending Chicago Center
Sun 08:24:42 PM 42.4506 -87.1250 249° West 389 448 11,300 -1,597 Descending Chicago Center
Sun 08:25:44 PM 42.4150 -87.2583 250° West 380 437 10,200 -629 Descending Chicago Center
Sun 08:26:46 PM 42.3794 -87.3875 250° West 370 426 10,000 -97 Descending Chicago Center
Sun 08:27:48 PM 42.3456 -87.5083 249° West 358 412 10,000  Level Chicago Center
Sun 08:28:50 PM 42.2597 -87.6178 223° Southwest 353 406 10,000  Level Chicago Center
Sun 08:29:53 PM 42.1869 -87.6947 218° Southwest 334 384 10,000 -912 Level Chicago Center
Sun 08:30:55 PM 42.1258 -87.7583 218° Southwest 283 326 8,100 -1,613 Descending Chicago Center
Sun 08:31:26 PM 42.1000 -87.8167 239° Southwest 287 330 7,500 -680 Descending Chicago TRACON
Sun 08:32:32 PM 42.0833 -87.9167 257° West 237 273 7,000 -238 Descending Chicago TRACON
Sun 08:33:32 PM 42.0500 -88.0000 242° Southwest 213 245 7,000 -450 Level Chicago TRACON
Sun 08:34:32 PM 42.0500 -88.0667 270° West 207 238 6,100 -1,000 Descending Chicago TRACON
Sun 08:35:32 PM 42.0500 -88.1500 270° West 209 241 5,000 -1,032 Descending Chicago TRACON
Sun 08:36:05 PM 42.0417 -88.1750 246° West 219 252 4,500 -1,011 Descending Chicago Center
Sun 08:37:07 PM 41.9936 -88.1664 172° South 193 222 3,400 -774 Descending Chicago Center
Sun 08:38:09 PM 41.9708 -88.1097 118° Southeast 180 207 2,900 -581 Descending Chicago Center
Sun 08:39:11 PM 41.9686 -88.0406 92° East 163 188 2,200 -615 Descending Chicago Center
Sun 08:39:27 PM 41.9667 -88.0333 110° East 156 180 2,100 -632 Descending Chicago TRACON
Sun 08:40:27 PM 41.9667 -87.9833 90° East 134 154 1,400 -700 Descending Chicago TRACON
Sun 08:43:00 PM 41.9667 -87.9000 217° Southwest  Level FlightAware Approximate

Login

Don't have an account? Register now (free) for customized features, flight alerts, and more!